When you browse on this site, cookies collect data to enhance your experience and personalize the content and advertising you see.
Visit our Privacy Policy to learn more. By continuing to use the site, you agree to this use of cookies and data.
  • In Portugal
  • List of Countries
  • For 7 days
  • Water Temperature
  • Satellite Maps
  • Weather Map
  • Weather Widgets
  • user-avatar
    Login

    Hourly Weather Pazardzhik

    Today, 17 November, Saturday

    Time Temperature Precipitation Wind Pressure Humidity
    00:00 +4°C° 0 mm 1 mps 752 mmHg 83%
    01:00 +4°C° 0 mm 1 mps 752 mmHg 83%
    02:00 +3°C° 0 mm 1 mps 752 mmHg 83%
    03:00 +3°C° 0 mm 1 mps 752 mmHg 85%
    04:00 +3°C° 0 mm 1 mps 752 mmHg 86%
    05:00 +2°C° 0 mm 1 mps 752 mmHg 87%
    06:00 +3°C° 0 mm 1 mps 752 mmHg 85%
    07:00 +3°C° 0 mm 1 mps 752 mmHg 83%
    08:00 +3°C° 0 mm 1 mps 752 mmHg 81%
    09:00 +4°C° 0 mm 1 mps 752 mmHg 74%
    10:00 +6°C° 0 mm 1 mps 752 mmHg 67%
    11:00 +7°C° 0 mm 1 mps 752 mmHg 59%
    12:00 +6°C° 0 mm 2 mps 752 mmHg 58%
    13:00 +7°C° 0 mm 2 mps 752 mmHg 57%
    14:00 +7°C° 0 mm 2 mps 751 mmHg 55%
    15:00 +6°C° 0 mm 2 mps 751 mmHg 61%
    16:00 +7°C° 0 mm 1 mps 751 mmHg 66%
    17:00 +6°C° 0 mm 1 mps 751 mmHg 71%
    18:00 +5°C° 0 mm 1 mps 751 mmHg 75%
    19:00 +5°C° 0 mm 1 mps 751 mmHg 78%
    20:00 +4°C° 0 mm 1 mps 751 mmHg 81%
    21:00 +4°C° 0 mm 1 mps 751 mmHg 81%
    22:00 +4°C° 0 mm 1 mps 751 mmHg 81%
    23:00 +4°C° 0 mm 1 mps 752 mmHg 81%

    Tomorrow, 18 November, Sunday

    Time Temperature Precipitation Wind Pressure Humidity
    00:00 +5°C° 0 mm 1 mps 751 mmHg 80%
    01:00 +5°C° 0 mm 1 mps 751 mmHg 79%
    02:00 +5°C° 0 mm 1 mps 751 mmHg 79%
    03:00 +5°C° 0 mm 1 mps 751 mmHg 79%
    04:00 +5°C° 0 mm 1 mps 750 mmHg 80%
    05:00 +5°C° 0 mm 1 mps 750 mmHg 80%
    06:00 +5°C° 0 mm 1 mps 750 mmHg 80%
    07:00 +6°C° 0 mm 1 mps 750 mmHg 80%
    08:00 +6°C° 0 mm 1 mps 750 mmHg 80%
    09:00 +7°C° 0 mm 1 mps 749 mmHg 77%
    10:00 +8°C° 0 mm 1 mps 749 mmHg 73%
    11:00 +8°C° 0 mm 2 mps 749 mmHg 69%
    12:00 +9°C° 0 mm 2 mps 748 mmHg 70%
    13:00 +9°C° 0 mm 2 mps 747 mmHg 70%
    14:00 +9°C° 0 mm 2 mps 746 mmHg 71%
    15:00 +9°C° 0.2 mm 2 mps 746 mmHg 76%
    16:00 +8°C° 0.2 mm 2 mps 746 mmHg 82%
    17:00 +7°C° 0.2 mm 2 mps 745 mmHg 88%
    18:00 +8°C° 0.8 mm 1 mps 745 mmHg 89%
    19:00 +8°C° 0.8 mm 1 mps 744 mmHg 90%
    20:00 +8°C° 0.8 mm 1 mps 744 mmHg 92%
    21:00 +8°C° 1.2 mm 1 mps 743 mmHg 92%
    22:00 +8°C° 1.2 mm 1 mps 743 mmHg 92%
    23:00 +7°C° 1.2 mm 1 mps 742 mmHg 93%

    Day after tomorrow, 19 November, Monday

    Time Temperature Precipitation Wind Pressure Humidity
    00:00 +7°C° 1.5 mm 1 mps 742 mmHg 93%
    01:00 +7°C° 1.5 mm 1 mps 742 mmHg 93%
    02:00 +7°C° 1.5 mm 1 mps 741 mmHg 94%
    03:00 +7°C° 1.1 mm 1 mps 741 mmHg 94%
    04:00 +7°C° 1.1 mm 1 mps 740 mmHg 94%
    05:00 +7°C° 1.1 mm 1 mps 740 mmHg 94%
    06:00 +8°C° 0.4 mm 1 mps 740 mmHg 94%
    07:00 +8°C° 0.4 mm 1 mps 740 mmHg 93%
    08:00 +8°C° 0.4 mm 1 mps 740 mmHg 93%
    09:00 +8°C° 0.1 mm 1 mps 740 mmHg 91%
    10:00 +9°C° 0.1 mm 1 mps 741 mmHg 90%
    11:00 +10°C° 0.1 mm 1 mps 741 mmHg 88%
    12:00 +10°C° 0 mm 1 mps 740 mmHg 87%
    13:00 +11°C° 0 mm 1 mps 740 mmHg 86%
    14:00 +11°C° 0 mm 1 mps 740 mmHg 86%
    15:00 +11°C° 0 mm 1 mps 740 mmHg 88%
    16:00 +10°C° 0 mm 1 mps 741 mmHg 91%
    17:00 +9°C° 0 mm 1 mps 741 mmHg 93%
    18:00 +9°C° 0 mm 1 mps 741 mmHg 94%
    19:00 +9°C° 0 mm 1 mps 742 mmHg 94%
    20:00 +9°C° 0 mm 1 mps 742 mmHg 94%
    21:00 +9°C° 0 mm 1 mps 742 mmHg 95%
    22:00 +9°C° 0 mm 1 mps 743 mmHg 95%
    23:00 +8°C° 0 mm 1 mps 743 mmHg 95%

    20 November, Tuesday

    Time Temperature Precipitation Wind Pressure Humidity
    00:00 +8°C° 0 mm 1 mps 743 mmHg 95%
    01:00 +8°C° 0 mm 1 mps 743 mmHg 95%
    02:00 +8°C° 0 mm 1 mps 743 mmHg 95%
    03:00 +8°C° 0 mm 2 mps 743 mmHg 94%
    04:00 +8°C° 0 mm 2 mps 743 mmHg 94%
    05:00 +8°C° 0 mm 2 mps 743 mmHg 94%
    06:00 +8°C° 0 mm 2 mps 742 mmHg 94%
    07:00 +9°C° 0 mm 2 mps 742 mmHg 94%
    08:00 +9°C° 0 mm 2 mps 742 mmHg 94%
    09:00 +10°C° 0 mm 3 mps 742 mmHg 92%
    10:00 +11°C° 0 mm 3 mps 742 mmHg 91%
    11:00 +12°C° 0 mm 3 mps 741 mmHg 89%
    12:00 +13°C° 0 mm 3 mps 741 mmHg 87%
    13:00 +13°C° 0 mm 3 mps 740 mmHg 86%
    14:00 +14°C° 0 mm 3 mps 740 mmHg 84%
    15:00 +14°C° 0 mm 3 mps 739 mmHg 87%
    16:00 +13°C° 0 mm 3 mps 739 mmHg 90%
    17:00 +13°C° 0 mm 3 mps 739 mmHg 94%
    18:00 +13°C° 0 mm 3 mps 739 mmHg 93%
    19:00 +13°C° 0 mm 3 mps 738 mmHg 93%
    20:00 +13°C° 0 mm 3 mps 738 mmHg 93%
    21:00 +13°C° 0 mm 3 mps 738 mmHg 92%
    22:00 +14°C° 0 mm 3 mps 738 mmHg 91%
    23:00 +14°C° 0 mm 3 mps 738 mmHg 91%

    21 November, Wednesday

    Time Temperature Precipitation Wind Pressure Humidity
    00:00 +14°C° 0 mm 3 mps 737 mmHg 91%
    01:00 +13°C° 0 mm 3 mps 737 mmHg 91%
    02:00 +13°C° 0 mm 3 mps 737 mmHg 90%
    03:00 +13°C° 0 mm 3 mps 737 mmHg 91%
    04:00 +13°C° 0 mm 2 mps 737 mmHg 92%
    05:00 +13°C° 0 mm 2 mps 737 mmHg 92%
    06:00 +13°C° 0 mm 2 mps 737 mmHg 91%
    07:00 +13°C° 0 mm 2 mps 737 mmHg 90%
    08:00 +13°C° 0 mm 1 mps 737 mmHg 90%
    09:00 +15°C° 0 mm 1 mps 737 mmHg 83%
    10:00 +16°C° 0 mm 1 mps 738 mmHg 76%
    11:00 +18°C° 0 mm 2 mps 738 mmHg 70%
    12:00 +18°C° 0.1 mm 2 mps 738 mmHg 68%
    13:00 +18°C° 0.1 mm 2 mps 738 mmHg 67%
    14:00 +18°C° 0.1 mm 2 mps 738 mmHg 66%
    15:00 +17°C° 0 mm 2 mps 739 mmHg 71%
    16:00 +16°C° 0 mm 1 mps 739 mmHg 75%
    17:00 +15°C° 0 mm 1 mps 739 mmHg 80%
    18:00 +14°C° 0 mm 1 mps 740 mmHg 81%
    19:00 +14°C° 0 mm 1 mps 740 mmHg 83%
    20:00 +13°C° 0 mm 2 mps 741 mmHg 85%
    21:00 +13°C° 0 mm 2 mps 741 mmHg 85%
    22:00 +13°C° 0 mm 2 mps 741 mmHg 85%
    23:00 +12°C° 0 mm 2 mps 742 mmHg 85%

    22 November, Thursday

    Time Temperature Precipitation Wind Pressure Humidity
    00:00 +12°C° 0 mm 1 mps 742 mmHg 84%
    01:00 +12°C° 0 mm 1 mps 742 mmHg 84%
    02:00 +12°C° 0 mm 1 mps 742 mmHg 83%
    03:00 +11°C° 0 mm 1 mps 742 mmHg 83%
    04:00 +11°C° 0 mm 1 mps 742 mmHg 82%
    05:00 +11°C° 0 mm 1 mps 742 mmHg 81%
    06:00 +11°C° 0 mm 1 mps 743 mmHg 81%
    07:00 +11°C° 0 mm 1 mps 743 mmHg 80%
    08:00 +11°C° 0 mm 1 mps 744 mmHg 79%
    09:00 +13°C° 0 mm 1 mps 744 mmHg 72%
    10:00 +15°C° 0 mm 1 mps 744 mmHg 65%
    11:00 +16°C° 0 mm 0 mps 744 mmHg 58%
    12:00 +19°C° 0 mm 1 mps 744 mmHg 56%
    13:00 +19°C° 0 mm 1 mps 744 mmHg 53%
    14:00 +19°C° 0 mm 1 mps 744 mmHg 51%
    15:00 +18°C° 0 mm 1 mps 744 mmHg 57%
    16:00 +15°C° 0 mm 1 mps 744 mmHg 63%
    17:00 +13°C° 0 mm 0 mps 744 mmHg 70%
    18:00 +12°C° 0 mm 0 mps 744 mmHg 71%
    19:00 +13°C° 0 mm 1 mps 745 mmHg 73%
    20:00 +13°C° 0 mm 1 mps 745 mmHg 75%
    21:00 +12°C° 0 mm 1 mps 745 mmHg 75%
    22:00 +12°C° 0 mm 1 mps 746 mmHg 76%
    23:00 +12°C° 0 mm 1 mps 746 mmHg 76%
    Show more